{"data":{"norad_id":40272,"intl_designator":"2014-062B","name":"ARSAT 1","alt_names":[],"object_type":"PAYLOAD","status":"ACTIVE","operator":null,"country":"ARGN","launch_date":"2014-10-16","launch_site_code":"FRGUI","launch_vehicle":null,"mission":null,"orbit_class":"UNKNOWN","rcs_meters":85.7424,"size_class":null,"mass_kg":null,"dimensions":null,"purposes":["comms"],"wikipedia_slug":null,"has_3d_model":false,"image_url":null,"decayed_at":null,"tle_current":{"epoch":"2026-09-18T11:32:53.911392Z","epoch_age_seconds":196428,"freshness":"STALE","line1":"1 40272U 14062B   26261.48117953 -.00000264  00000+0  00000+0 0  9994","line2":"2 40272   0.0083 215.5782 0001638 304.1628 299.0890  1.00272114 43563","mean_motion":1.00272114,"eccentricity":0.0001638,"inclination_deg":0.0083,"raan_deg":215.5782,"arg_perigee_deg":304.1628,"mean_anomaly_deg":299.089,"bstar":0,"rev_number":4356,"period_min":1436.0921920924,"perigee_km":35779.596162812,"apogee_km":35793.409298788,"semimajor_km":42164.6397308,"source":"CELESTRAK","updated_at":"2026-09-20T09:00:35.213006Z"}}}